This is the latest recevied weather packets stored in our database for station/object AC4AG. If no packets are shown the sender has not sent any weather packets the latest 10 day(s).
| Time | Temp. | Humidity | Pressure | Rain* | Wind** | Luminosity | Snow |
|---|---|---|---|---|---|---|---|
| 1777327203 | 25.56° C | 54% | 1012 hPa | 0 mm | - | 202 W/m² | - |
| 1777326900 | 25.56° C | 53% | 1012.4 hPa | 0 mm | - | 297 W/m² | - |
| 1777326596 | 25.56° C | 52% | 1012.1 hPa | 0 mm | - | 312 W/m² | - |
| 1777326294 | 25.56° C | 53% | 1012.1 hPa | 0 mm | - | 353 W/m² | - |
| 1777325991 | 25.56° C | 52% | 1012.2 hPa | 0 mm | - | 374 W/m² | - |
| 1777325689 | 25.56° C | 51% | 1012.6 hPa | 0 mm | - | 428 W/m² | - |
| 1777325387 | 26.11° C | 51% | 1012.6 hPa | 0 mm | - | 454 W/m² | - |
| 1777325085 | 25.56° C | 51% | 1012.5 hPa | 0 mm | - | 457 W/m² | - |
| 1777324781 | 25.56° C | 51% | 1012.7 hPa | 0 mm | - | 421 W/m² | - |
| 1777324479 | 25.56° C | 53% | 1012.5 hPa | 0 mm | - | 408 W/m² | - |
| 1777324176 | 25.56° C | 51% | 1012.6 hPa | 0 mm | - | 460 W/m² | - |
| 1777323874 | 25.56° C | 52% | 1012.7 hPa | 0 mm | - | 456 W/m² | - |
| 1777323571 | 25.56° C | 51% | 1013 hPa | 0 mm | - | 448 W/m² | - |
| 1777323268 | 25.56° C | 54% | 1012.8 hPa | 0 mm | - | 438 W/m² | - |
| 1777322966 | 25° C | 53% | 1013.2 hPa | 0 mm | - | 440 W/m² | - |
| 1777322664 | 25° C | 52% | 1013.2 hPa | 0 mm | - | 420 W/m² | - |
| 1777322361 | 25° C | 53% | 1013.4 hPa | 0 mm | - | 418 W/m² | - |
| 1777322058 | 25° C | 53% | 1013.1 hPa | 0 mm | - | 411 W/m² | - |
| 1777321754 | 25° C | 52% | 1013.2 hPa | 0 mm | - | 415 W/m² | - |
| 1777321451 | 25.56° C | 52% | 1013.2 hPa | 0 mm | - | 438 W/m² | - |
| 1777321148 | 25.56° C | 53% | 1013.5 hPa | 0 mm | - | 439 W/m² | - |
| 1777320845 | 25.56° C | 55% | 1013.5 hPa | 0 mm | - | 481 W/m² | - |
| 1777320542 | 25° C | 54% | 1013.4 hPa | 0 mm | - | 512 W/m² | - |
| 1777320240 | 25° C | 53% | 1013.8 hPa | 0 mm | - | 456 W/m² | - |
| 1777319936 | 25.56° C | 52% | 1013.8 hPa | 0 mm | - | 421 W/m² | - |
* Rain latest hour (hover to see other rain measurements)
** Current wind speed in m/s (hover to see current wind gust speed)